PRIVATE WETTERSTATION BILLIGHEIM-ALLFELD                       ZURCK
Wetterdaten: Donnerstag, 07.09.2017
Datum Zeit Temp. A. Temp. A. min Temp. A. max Feuchte A. Luftdruck Regen Wind Richtung Richtung Sonnenschein ET Solar Taupunkt Windchill Windben Empfang
07.09.2017 00:00 12,9 C 12,9 C 13,1 C 83 % 1017,5 hPa 0,0 l/m 3,2 km/h (1 Bft) W 270 0 min 0,025 mm 0 W/m 10,1 C 12,9 C 9,7 km/h (2 Bft) 98 %
07.09.2017 00:10 12,7 C 12,7 C 12,9 C 83 % 1017,6 hPa 0,0 l/m 0,0 km/h (0 Bft) SW 225 0 min 0,000 mm 0 W/m 9,9 C 12,7 C 9,7 km/h (2 Bft) 97 %
07.09.2017 00:20 12,3 C 12,3 C 12,7 C 85 % 1017,6 hPa 0,0 l/m 1,6 km/h (1 Bft) S-SO 157 0 min 0,000 mm 0 W/m 9,9 C 12,3 C 8,0 km/h (2 Bft) 98 %
07.09.2017 00:30 12,1 C 12,1 C 12,3 C 87 % 1017,7 hPa 0,0 l/m 1,6 km/h (1 Bft) S-SO 157 0 min 0,000 mm 0 W/m 10,0 C 12,1 C 8,0 km/h (2 Bft) 97 %
07.09.2017 00:40 11,9 C 11,9 C 12,1 C 87 % 1017,6 hPa 0,0 l/m 0,0 km/h (0 Bft) S-SO 157 0 min 0,000 mm 0 W/m 9,8 C 11,9 C 1,6 km/h (1 Bft) 96 %
07.09.2017 00:50 11,7 C 11,7 C 11,9 C 88 % 1017,7 hPa 0,0 l/m 1,6 km/h (1 Bft) S 180 0 min 0,000 mm 0 W/m 9,8 C 11,7 C 8,0 km/h (2 Bft) 89 %
07.09.2017 01:00 11,6 C 11,6 C 11,7 C 88 % 1017,7 hPa 0,0 l/m 1,6 km/h (1 Bft) S 180 0 min 0,000 mm 0 W/m 9,7 C 11,6 C 8,0 km/h (2 Bft) 97 %
07.09.2017 01:10 11,5 C 11,5 C 11,6 C 88 % 1017,7 hPa 0,0 l/m 1,6 km/h (1 Bft) S-SW 202 0 min 0,000 mm 0 W/m 9,6 C 11,5 C 8,0 km/h (2 Bft) 98 %
07.09.2017 01:20 11,6 C 11,5 C 11,6 C 88 % 1017,7 hPa 0,0 l/m 0,0 km/h (0 Bft) S-SW 202 0 min 0,000 mm 0 W/m 9,7 C 11,6 C 1,6 km/h (1 Bft) 98 %
07.09.2017 01:30 11,6 C 11,6 C 11,6 C 88 % 1017,7 hPa 0,0 l/m 0,0 km/h (0 Bft) N 0 0 min 0,000 mm 0 W/m 9,7 C 11,6 C 0,0 km/h (0 Bft) 98 %
07.09.2017 01:40 11,7 C 11,6 C 11,7 C 88 % 1017,7 hPa 0,0 l/m 0,0 km/h (0 Bft) N 0 0 min 0,000 mm 0 W/m 9,8 C 11,7 C 0,0 km/h (0 Bft) 97 %
07.09.2017 01:50 11,7 C 11,7 C 11,7 C 88 % 1017,6 hPa 0,0 l/m 0,0 km/h (0 Bft) N 0 0 min 0,000 mm 0 W/m 9,8 C 11,7 C 0,0 km/h (0 Bft) 97 %
07.09.2017 02:00 11,7 C 11,7 C 11,7 C 88 % 1017,6 hPa 0,0 l/m 0,0 km/h (0 Bft) SW 225 0 min 0,000 mm 0 W/m 9,8 C 11,7 C 6,4 km/h (2 Bft) 97 %
07.09.2017 02:10 11,7 C 11,7 C 11,7 C 88 % 1017,7 hPa 0,0 l/m 3,2 km/h (1 Bft) W-SW 247 0 min 0,000 mm 0 W/m 9,8 C 11,7 C 9,7 km/h (2 Bft) 97 %
07.09.2017 02:20 11,7 C 11,7 C 11,7 C 87 % 1017,6 hPa 0,0 l/m 3,2 km/h (1 Bft) W-SW 247 0 min 0,000 mm 0 W/m 9,6 C 11,7 C 8,0 km/h (2 Bft) 98 %
07.09.2017 02:30 11,7 C 11,7 C 11,8 C 88 % 1017,5 hPa 0,0 l/m 6,4 km/h (2 Bft) S-SW 202 0 min 0,000 mm 0 W/m 9,8 C 11,7 C 11,3 km/h (2 Bft) 98 %
07.09.2017 02:40 11,7 C 11,7 C 11,8 C 87 % 1017,5 hPa 0,0 l/m 6,4 km/h (2 Bft) S-SW 202 0 min 0,000 mm 0 W/m 9,6 C 11,7 C 11,3 km/h (2 Bft) 98 %
07.09.2017 02:50 11,7 C 11,7 C 11,7 C 87 % 1017,5 hPa 0,0 l/m 4,8 km/h (1 Bft) S-SW 202 0 min 0,000 mm 0 W/m 9,6 C 11,7 C 9,7 km/h (2 Bft) 97 %
07.09.2017 03:00 11,6 C 11,6 C 11,7 C 87 % 1017,4 hPa 0,0 l/m 4,8 km/h (1 Bft) S-SW 202 0 min 0,025 mm 0 W/m 9,5 C 11,6 C 9,7 km/h (2 Bft) 97 %
07.09.2017 03:10 11,5 C 11,5 C 11,6 C 87 % 1017,4 hPa 0,0 l/m 1,6 km/h (1 Bft) S-SW 202 0 min 0,000 mm 0 W/m 9,4 C 11,5 C 9,7 km/h (2 Bft) 97 %
07.09.2017 03:20 11,4 C 11,4 C 11,5 C 87 % 1017,4 hPa 0,0 l/m 1,6 km/h (1 Bft) S-SW 202 0 min 0,000 mm 0 W/m 9,3 C 11,4 C 8,0 km/h (2 Bft) 97 %
07.09.2017 03:30 11,4 C 11,4 C 11,4 C 88 % 1017,4 hPa 0,0 l/m 3,2 km/h (1 Bft) S-SW 202 0 min 0,000 mm 0 W/m 9,5 C 11,4 C 8,0 km/h (2 Bft) 98 %
07.09.2017 03:40 11,4 C 11,4 C 11,4 C 88 % 1017,3 hPa 0,0 l/m 0,0 km/h (0 Bft) S-SW 202 0 min 0,000 mm 0 W/m 9,5 C 11,4 C 1,6 km/h (1 Bft) 97 %
07.09.2017 03:50 11,4 C 11,3 C 11,4 C 88 % 1017,3 hPa 0,0 l/m 1,6 km/h (1 Bft) SW 225 0 min 0,000 mm 0 W/m 9,5 C 11,4 C 9,7 km/h (2 Bft) 98 %
07.09.2017 04:00 11,4 C 11,4 C 11,4 C 88 % 1017,3 hPa 0,0 l/m 0,0 km/h (0 Bft) SW 225 0 min 0,000 mm 0 W/m 9,5 C 11,4 C 1,6 km/h (1 Bft) 97 %
07.09.2017 04:10 11,4 C 11,4 C 11,4 C 88 % 1017,3 hPa 0,0 l/m 0,0 km/h (0 Bft) SW 225 0 min 0,000 mm 0 W/m 9,5 C 11,4 C 9,7 km/h (2 Bft) 98 %
07.09.2017 04:20 11,4 C 11,3 C 11,4 C 88 % 1017,2 hPa 0,0 l/m 3,2 km/h (1 Bft) S-SW 202 0 min 0,000 mm 0 W/m 9,5 C 11,4 C 8,0 km/h (2 Bft) 88 %
07.09.2017 04:30 11,4 C 11,3 C 11,4 C 89 % 1017,1 hPa 0,0 l/m 4,8 km/h (1 Bft) S-SW 202 0 min 0,000 mm 0 W/m 9,7 C 11,4 C 11,3 km/h (2 Bft) 98 %
07.09.2017 04:40 11,3 C 11,3 C 11,4 C 89 % 1017,1 hPa 0,0 l/m 0,0 km/h (0 Bft) S-SW 202 0 min 0,000 mm 0 W/m 9,6 C 11,3 C 6,4 km/h (2 Bft) 98 %
07.09.2017 04:50 11,3 C 11,3 C 11,3 C 89 % 1017,1 hPa 0,0 l/m 3,2 km/h (1 Bft) S-SW 202 0 min 0,000 mm 0 W/m 9,6 C 11,3 C 9,7 km/h (2 Bft) 98 %
07.09.2017 05:00 11,4 C 11,3 C 11,4 C 89 % 1017,0 hPa 0,0 l/m 4,8 km/h (1 Bft) SW 225 0 min 0,000 mm 0 W/m 9,7 C 11,4 C 11,3 km/h (2 Bft) 98 %
07.09.2017 05:10 11,4 C 11,4 C 11,4 C 89 % 1017,0 hPa 0,0 l/m 3,2 km/h (1 Bft) SW 225 0 min 0,000 mm 0 W/m 9,7 C 11,4 C 11,3 km/h (2 Bft) 97 %
07.09.2017 05:20 11,3 C 11,3 C 11,4 C 89 % 1016,9 hPa 0,0 l/m 1,6 km/h (1 Bft) SW 225 0 min 0,000 mm 0 W/m 9,6 C 11,3 C 9,7 km/h (2 Bft) 98 %
07.09.2017 05:30 11,1 C 11,1 C 11,3 C 89 % 1016,8 hPa 0,0 l/m 0,0 km/h (0 Bft) N 0 0 min 0,000 mm 0 W/m 9,4 C 11,1 C 0,0 km/h (0 Bft) 98 %
07.09.2017 05:40 10,9 C 10,9 C 11,1 C 89 % 1016,8 hPa 0,0 l/m 0,0 km/h (0 Bft) S-SW 202 0 min 0,000 mm 0 W/m 9,2 C 10,9 C 1,6 km/h (1 Bft) 97 %
07.09.2017 05:50 10,9 C 10,9 C 10,9 C 89 % 1016,8 hPa 0,0 l/m 3,2 km/h (1 Bft) S-SW 202 0 min 0,000 mm 0 W/m 9,2 C 10,9 C 8,0 km/h (2 Bft) 98 %
07.09.2017 06:00 10,8 C 10,8 C 10,9 C 89 % 1016,8 hPa 0,0 l/m 3,2 km/h (1 Bft) S-SW 202 0 min 0,000 mm 0 W/m 9,1 C 10,8 C 9,7 km/h (2 Bft) 98 %
07.09.2017 06:10 10,9 C 10,8 C 10,9 C 89 % 1016,7 hPa 0,0 l/m 4,8 km/h (1 Bft) S-SW 202 0 min 0,000 mm 0 W/m 9,2 C 10,9 C 14,5 km/h (3 Bft) 98 %
07.09.2017 06:20 11,0 C 10,9 C 11,1 C 89 % 1016,7 hPa 0,0 l/m 3,2 km/h (1 Bft) SW 225 0 min 0,000 mm 0 W/m 9,3 C 11,0 C 9,7 km/h (2 Bft) 97 %
07.09.2017 06:30 11,1 C 11,0 C 11,1 C 89 % 1016,6 hPa 0,0 l/m 1,6 km/h (1 Bft) SW 225 0 min 0,000 mm 0 W/m 9,4 C 11,1 C 9,7 km/h (2 Bft) 97 %
07.09.2017 06:40 11,1 C 11,1 C 11,2 C 89 % 1016,6 hPa 0,0 l/m 3,2 km/h (1 Bft) S-SW 202 0 min 0,000 mm 0 W/m 9,4 C 11,1 C 8,0 km/h (2 Bft) 97 %
07.09.2017 06:50 11,2 C 11,1 C 11,2 C 89 % 1016,6 hPa 0,0 l/m 0,0 km/h (0 Bft) S-SW 202 0 min 0,000 mm 0 W/m 9,5 C 11,2 C 4,8 km/h (1 Bft) 98 %
07.09.2017 07:00 11,2 C 11,2 C 11,2 C 89 % 1016,6 hPa 0,0 l/m 1,6 km/h (1 Bft) S-SW 202 0 min 0,000 mm 5 W/m 9,5 C 11,2 C 6,4 km/h (2 Bft) 98 %
07.09.2017 07:10 11,2 C 11,2 C 11,2 C 89 % 1016,7 hPa 0,0 l/m 3,2 km/h (1 Bft) S-SW 202 0 min 0,000 mm 11 W/m 9,5 C 11,2 C 9,7 km/h (2 Bft) 97 %
07.09.2017 07:20 11,2 C 11,2 C 11,2 C 89 % 1016,7 hPa 0,0 l/m 3,2 km/h (1 Bft) SW 225 0 min 0,000 mm 18 W/m 9,5 C 11,2 C 16,1 km/h (3 Bft) 98 %
07.09.2017 07:30 11,3 C 11,2 C 11,3 C 89 % 1016,7 hPa 0,0 l/m 3,2 km/h (1 Bft) SW 225 0 min 0,000 mm 26 W/m 9,6 C 11,3 C 11,3 km/h (2 Bft) 98 %
07.09.2017 07:40 11,4 C 11,3 C 11,4 C 89 % 1016,7 hPa 0,0 l/m 1,6 km/h (1 Bft) SW 225 0 min 0,000 mm 39 W/m 9,7 C 11,4 C 8,0 km/h (2 Bft) 89 %
07.09.2017 07:50 11,4 C 11,3 C 11,4 C 89 % 1016,7 hPa 0,0 l/m 3,2 km/h (1 Bft) W-SW 247 0 min 0,000 mm 54 W/m 9,7 C 11,4 C 9,7 km/h (2 Bft) 97 %
07.09.2017 08:00 11,6 C 11,4 C 11,6 C 89 % 1016,8 hPa 0,0 l/m 3,2 km/h (1 Bft) SW 225 0 min 0,025 mm 74 W/m 9,8 C 11,6 C 11,3 km/h (2 Bft) 98 %
07.09.2017 08:10 11,7 C 11,6 C 11,7 C 89 % 1016,7 hPa 0,0 l/m 0,0 km/h (0 Bft) SW 225 0 min 0,000 mm 83 W/m 9,9 C 11,7 C 4,8 km/h (1 Bft) 98 %
07.09.2017 08:20 11,9 C 11,7 C 11,9 C 89 % 1016,8 hPa 0,0 l/m 0,0 km/h (0 Bft) SW 225 0 min 0,000 mm 91 W/m 10,1 C 11,9 C 1,6 km/h (1 Bft) 98 %
07.09.2017 08:30 12,1 C 11,9 C 12,1 C 89 % 1016,8 hPa 0,0 l/m 1,6 km/h (1 Bft) SW 225 0 min 0,000 mm 125 W/m 10,3 C 12,1 C 9,7 km/h (2 Bft) 98 %
07.09.2017 08:40 12,3 C 12,1 C 12,3 C 89 % 1016,8 hPa 0,0 l/m 1,6 km/h (1 Bft) S-SW 202 0 min 0,000 mm 134 W/m 10,5 C 12,3 C 9,7 km/h (2 Bft) 98 %
07.09.2017 08:50 12,5 C 12,3 C 12,5 C 89 % 1016,8 hPa 0,0 l/m 1,6 km/h (1 Bft) S-SW 202 0 min 0,000 mm 139 W/m 10,7 C 12,5 C 14,5 km/h (3 Bft) 98 %
07.09.2017 09:00 12,7 C 12,5 C 12,7 C 89 % 1016,8 hPa 0,0 l/m 3,2 km/h (1 Bft) S-SW 202 0 min 0,051 mm 141 W/m 10,9 C 12,7 C 9,7 km/h (2 Bft) 97 %
07.09.2017 09:10 13,0 C 12,8 C 13,0 C 88 % 1016,7 hPa 0,0 l/m 4,8 km/h (1 Bft) S-SW 202 10 min 0,000 mm 202 W/m 11,1 C 13,0 C 11,3 km/h (2 Bft) 98 %
07.09.2017 09:20 13,3 C 13,0 C 13,3 C 88 % 1016,8 hPa 0,0 l/m 4,8 km/h (1 Bft) S-SW 202 10 min 0,000 mm 236 W/m 11,4 C 13,3 C 14,5 km/h (3 Bft) 98 %
07.09.2017 09:30 13,9 C 13,3 C 13,9 C 87 % 1016,8 hPa 0,0 l/m 6,4 km/h (2 Bft) S-SW 202 10 min 0,000 mm 450 W/m 11,8 C 13,9 C 11,3 km/h (2 Bft) 97 %
07.09.2017 09:40 14,6 C 13,9 C 14,6 C 85 % 1016,9 hPa 0,0 l/m 8,0 km/h (2 Bft) S-SW 202 10 min 0,000 mm 541 W/m 12,1 C 13,7 C 17,7 km/h (3 Bft) 98 %
07.09.2017 09:50 14,6 C 14,6 C 14,7 C 83 % 1016,9 hPa 0,0 l/m 9,7 km/h (2 Bft) S-SW 202 10 min 0,000 mm 279 W/m 11,7 C 12,8 C 20,9 km/h (4 Bft) 98 %
07.09.2017 10:00 14,5 C 14,4 C 14,6 C 84 % 1017,0 hPa 0,0 l/m 6,4 km/h (2 Bft) S-SW 202 10 min 0,152 mm 308 W/m 11,8 C 14,5 C 17,7 km/h (3 Bft) 98 %
07.09.2017 10:10 14,6 C 14,5 C 14,6 C 82 % 1017,0 hPa 0,0 l/m 6,4 km/h (2 Bft) SW 225 10 min 0,000 mm 311 W/m 11,6 C 14,6 C 17,7 km/h (3 Bft) 98 %
07.09.2017 10:20 15,1 C 14,6 C 15,1 C 83 % 1017,0 hPa 0,0 l/m 3,2 km/h (1 Bft) W-SW 247 10 min 0,000 mm 327 W/m 12,2 C 15,1 C 14,5 km/h (3 Bft) 98 %
07.09.2017 10:30 15,2 C 15,1 C 15,2 C 82 % 1017,0 hPa 0,0 l/m 6,4 km/h (2 Bft) S-SW 202 10 min 0,000 mm 348 W/m 12,1 C 15,2 C 19,3 km/h (3 Bft) 98 %
07.09.2017 10:40 15,3 C 15,2 C 15,4 C 79 % 1017,0 hPa 0,0 l/m 6,4 km/h (2 Bft) W 270 10 min 0,000 mm 316 W/m 11,7 C 15,3 C 16,1 km/h (3 Bft) 97 %
07.09.2017 10:50 15,3 C 15,3 C 15,3 C 79 % 1016,9 hPa 0,0 l/m 8,0 km/h (2 Bft) W-SW 247 10 min 0,000 mm 288 W/m 11,7 C 14,4 C 17,7 km/h (3 Bft) 98 %
07.09.2017 11:00 15,4 C 15,3 C 15,5 C 80 % 1016,9 hPa 0,0 l/m 4,8 km/h (1 Bft) W-SW 247 10 min 0,178 mm 287 W/m 12,0 C 15,4 C 16,1 km/h (3 Bft) 97 %
07.09.2017 11:10 15,7 C 15,4 C 15,7 C 79 % 1016,9 hPa 0,0 l/m 6,4 km/h (2 Bft) W-SW 247 10 min 0,000 mm 353 W/m 12,1 C 15,7 C 20,9 km/h (4 Bft) 98 %
07.09.2017 11:20 16,1 C 15,7 C 16,1 C 79 % 1016,8 hPa 0,0 l/m 9,7 km/h (2 Bft) W 270 10 min 0,000 mm 499 W/m 12,5 C 14,5 C 24,1 km/h (4 Bft) 97 %
07.09.2017 11:30 16,7 C 16,1 C 16,7 C 74 % 1016,8 hPa 0,0 l/m 8,0 km/h (2 Bft) W-SW 247 10 min 0,000 mm 814 W/m 12,0 C 15,9 C 25,7 km/h (4 Bft) 98 %
07.09.2017 11:40 16,6 C 16,5 C 16,7 C 76 % 1016,7 hPa 0,0 l/m 6,4 km/h (2 Bft) SW 225 10 min 0,000 mm 294 W/m 12,3 C 16,6 C 20,9 km/h (4 Bft) 98 %
07.09.2017 11:50 16,4 C 16,4 C 16,6 C 74 % 1016,7 hPa 0,0 l/m 9,7 km/h (2 Bft) SW 225 10 min 0,000 mm 770 W/m 11,8 C 14,8 C 20,9 km/h (4 Bft) 97 %
07.09.2017 12:00 15,9 C 15,9 C 16,4 C 75 % 1016,7 hPa 0,0 l/m 8,0 km/h (2 Bft) SW 225 10 min 0,229 mm 197 W/m 11,5 C 15,0 C 17,7 km/h (3 Bft) 98 %
07.09.2017 12:10 15,7 C 15,7 C 15,9 C 76 % 1016,6 hPa 0,0 l/m 8,0 km/h (2 Bft) S-SW 202 10 min 0,000 mm 225 W/m 11,5 C 14,8 C 17,7 km/h (3 Bft) 97 %
07.09.2017 12:20 16,5 C 15,7 C 16,5 C 76 % 1016,5 hPa 0,0 l/m 8,0 km/h (2 Bft) SW 225 10 min 0,000 mm 791 W/m 12,3 C 15,7 C 20,9 km/h (4 Bft) 97 %
07.09.2017 12:30 17,7 C 16,5 C 17,7 C 71 % 1016,4 hPa 0,0 l/m 9,7 km/h (2 Bft) SW 225 10 min 0,000 mm 1000 W/m 12,4 C 16,2 C 20,9 km/h (4 Bft) 97 %
07.09.2017 12:40 17,7 C 17,6 C 17,8 C 68 % 1016,4 hPa 0,0 l/m 9,7 km/h (2 Bft) W 270 10 min 0,000 mm 364 W/m 11,7 C 16,2 C 22,5 km/h (4 Bft) 98 %
07.09.2017 12:50 17,3 C 17,3 C 17,7 C 67 % 1016,4 hPa 0,0 l/m 11,3 km/h (2 Bft) SW 225 10 min 0,000 mm 258 W/m 11,1 C 15,2 C 22,5 km/h (4 Bft) 98 %
07.09.2017 13:00 16,8 C 16,8 C 17,3 C 69 % 1016,4 hPa 0,0 l/m 9,7 km/h (2 Bft) W-SW 247 10 min 0,254 mm 218 W/m 11,1 C 15,2 C 20,9 km/h (4 Bft) 98 %
07.09.2017 13:10 16,4 C 16,4 C 16,8 C 68 % 1016,4 hPa 0,0 l/m 9,7 km/h (2 Bft) W-SW 247 10 min 0,000 mm 220 W/m 10,5 C 14,8 C 24,1 km/h (4 Bft) 97 %
07.09.2017 13:20 16,3 C 16,3 C 16,4 C 67 % 1016,2 hPa 0,0 l/m 9,7 km/h (2 Bft) W-SW 247 10 min 0,000 mm 257 W/m 10,2 C 14,7 C 19,3 km/h (3 Bft) 98 %
07.09.2017 13:30 16,4 C 16,3 C 16,4 C 69 % 1016,3 hPa 0,0 l/m 8,0 km/h (2 Bft) W-SW 247 10 min 0,000 mm 288 W/m 10,7 C 15,6 C 19,3 km/h (3 Bft) 98 %
07.09.2017 13:40 16,5 C 16,4 C 16,5 C 68 % 1016,3 hPa 0,0 l/m 4,8 km/h (1 Bft) W-SW 247 10 min 0,000 mm 241 W/m 10,6 C 16,5 C 11,3 km/h (2 Bft) 97 %
07.09.2017 13:50 16,4 C 16,4 C 16,6 C 70 % 1016,2 hPa 0,0 l/m 4,8 km/h (1 Bft) W 270 10 min 0,000 mm 204 W/m 10,9 C 16,4 C 14,5 km/h (3 Bft) 98 %
07.09.2017 14:00 16,7 C 16,4 C 16,7 C 70 % 1016,1 hPa 0,0 l/m 3,2 km/h (1 Bft) W 270 10 min 0,152 mm 301 W/m 11,2 C 16,7 C 14,5 km/h (3 Bft) 99 %
07.09.2017 14:10 16,7 C 16,6 C 16,7 C 67 % 1016,1 hPa 0,0 l/m 6,4 km/h (2 Bft) W 270 10 min 0,000 mm 209 W/m 10,5 C 16,7 C 14,5 km/h (3 Bft) 97 %
07.09.2017 14:20 16,8 C 16,7 C 16,8 C 68 % 1016,1 hPa 0,0 l/m 6,4 km/h (2 Bft) W 270 10 min 0,000 mm 434 W/m 10,9 C 16,8 C 14,5 km/h (3 Bft) 87 %
07.09.2017 14:30 17,2 C 16,8 C 17,2 C 66 % 1016,1 hPa 0,0 l/m 8,0 km/h (2 Bft) W 270 10 min 0,000 mm 438 W/m 10,8 C 16,4 C 20,9 km/h (4 Bft) 98 %
07.09.2017 14:40 17,3 C 17,2 C 17,3 C 66 % 1016,0 hPa 0,0 l/m 6,4 km/h (2 Bft) W 270 10 min 0,000 mm 311 W/m 10,9 C 17,3 C 19,3 km/h (3 Bft) 98 %
07.09.2017 14:50 17,3 C 17,3 C 17,3 C 67 % 1015,9 hPa 0,0 l/m 8,0 km/h (2 Bft) SW 225 10 min 0,000 mm 338 W/m 11,1 C 16,5 C 16,1 km/h (3 Bft) 98 %
07.09.2017 15:00 17,3 C 17,3 C 17,3 C 66 % 1015,8 hPa 0,0 l/m 4,8 km/h (1 Bft) W-SW 247 10 min 0,203 mm 418 W/m 10,9 C 17,3 C 17,7 km/h (3 Bft) 97 %
07.09.2017 15:10 17,3 C 17,3 C 17,4 C 68 % 1015,7 hPa 0,0 l/m 8,0 km/h (2 Bft) W-SW 247 10 min 0,000 mm 294 W/m 11,3 C 16,5 C 19,3 km/h (3 Bft) 97 %
07.09.2017 15:20 17,3 C 17,3 C 17,3 C 67 % 1015,8 hPa 0,0 l/m 6,4 km/h (2 Bft) W-SW 247 10 min 0,000 mm 306 W/m 11,1 C 17,3 C 17,7 km/h (3 Bft) 98 %
07.09.2017 15:30 17,6 C 17,3 C 17,6 C 67 % 1015,6 hPa 0,0 l/m 6,4 km/h (2 Bft) W-SW 247 10 min 0,000 mm 559 W/m 11,4 C 17,6 C 12,9 km/h (3 Bft) 98 %
07.09.2017 15:40 17,8 C 17,6 C 17,8 C 67 % 1015,4 hPa 0,0 l/m 4,8 km/h (1 Bft) W 270 10 min 0,000 mm 251 W/m 11,6 C 17,8 C 12,9 km/h (3 Bft) 100 %
07.09.2017 15:50 17,7 C 17,7 C 17,9 C 64 % 1015,4 hPa 0,0 l/m 6,4 km/h (2 Bft) SW 225 10 min 0,000 mm 339 W/m 10,8 C 17,7 C 16,1 km/h (3 Bft) 100 %
07.09.2017 16:00 17,9 C 17,7 C 17,9 C 63 % 1015,3 hPa 0,0 l/m 6,4 km/h (2 Bft) SW 225 10 min 0,203 mm 663 W/m 10,8 C 17,9 C 19,3 km/h (3 Bft) 100 %
07.09.2017 16:10 17,7 C 17,7 C 17,9 C 61 % 1015,4 hPa 0,0 l/m 9,7 km/h (2 Bft) S-SW 202 10 min 0,000 mm 269 W/m 10,1 C 16,2 C 19,3 km/h (3 Bft) 99 %
07.09.2017 16:20 17,4 C 17,4 C 17,7 C 63 % 1015,4 hPa 0,0 l/m 6,4 km/h (2 Bft) W-SW 247 10 min 0,000 mm 178 W/m 10,3 C 17,4 C 16,1 km/h (3 Bft) 100 %
07.09.2017 16:30 17,3 C 17,3 C 17,4 C 64 % 1015,3 hPa 0,0 l/m 4,8 km/h (1 Bft) W-SW 247 10 min 0,000 mm 165 W/m 10,4 C 17,3 C 12,9 km/h (3 Bft) 99 %
07.09.2017 16:40 17,3 C 17,3 C 17,3 C 65 % 1015,2 hPa 0,0 l/m 4,8 km/h (1 Bft) W-SW 247 10 min 0,000 mm 250 W/m 10,7 C 17,3 C 12,9 km/h (3 Bft) 99 %
07.09.2017 16:50 17,6 C 17,3 C 17,6 C 63 % 1015,2 hPa 0,0 l/m 6,4 km/h (2 Bft) W 270 10 min 0,000 mm 250 W/m 10,5 C 17,6 C 16,1 km/h (3 Bft) 100 %
07.09.2017 17:10 17,7 C 17,3 C 17,7 C 63 % 1015,1 hPa 0,0 l/m 7,1 km/h (2 Bft) W-NW 290 20 min 0,103 mm 190 W/m 10,6 C 17,4 C 16,1 km/h (3 Bft) 98 %
07.09.2017 17:20 17,7 C 17,7 C 17,8 C 58 % 1015,1 hPa 0,0 l/m 10,1 km/h (2 Bft) W-NW 282 10 min 0,000 mm 165 W/m 9,3 C 16,1 C 19,3 km/h (3 Bft) 97 %
07.09.2017 17:30 17,5 C 17,5 C 17,7 C 58 % 1015,1 hPa 0,0 l/m 9,9 km/h (2 Bft) W 271 0 min 0,000 mm 149 W/m 9,1 C 15,9 C 19,3 km/h (3 Bft) 97 %
07.09.2017 17:40 17,4 C 17,4 C 17,5 C 60 % 1015,2 hPa 0,0 l/m 9,4 km/h (2 Bft) W-SW 248 0 min 0,000 mm 114 W/m 9,6 C 16,0 C 17,7 km/h (3 Bft) 98 %
07.09.2017 17:50 17,3 C 17,3 C 17,4 C 61 % 1015,2 hPa 0,0 l/m 8,0 km/h (2 Bft) W 263 0 min 0,000 mm 98 W/m 9,7 C 16,5 C 17,7 km/h (3 Bft) 98 %
07.09.2017 18:00 17,3 C 17,3 C 17,3 C 62 % 1015,2 hPa 0,0 l/m 6,5 km/h (2 Bft) W 273 0 min 0,000 mm 91 W/m 9,9 C 17,3 C 17,7 km/h (3 Bft) 98 %
07.09.2017 18:10 17,2 C 17,2 C 17,3 C 61 % 1015,0 hPa 0,0 l/m 6,4 km/h (2 Bft) W-SW 257 0 min 0,127 mm 69 W/m 9,6 C 17,2 C 16,1 km/h (3 Bft) 97 %
07.09.2017 18:20 17,1 C 17,1 C 17,2 C 63 % 1015,0 hPa 0,0 l/m 5,5 km/h (1 Bft) W-SW 254 0 min 0,000 mm 62 W/m 10,0 C 17,1 C 14,5 km/h (3 Bft) 98 %
07.09.2017 18:30 16,9 C 16,9 C 17,1 C 63 % 1014,8 hPa 0,0 l/m 4,7 km/h (1 Bft) W-SW 252 0 min 0,000 mm 54 W/m 9,8 C 16,9 C 9,7 km/h (2 Bft) 97 %
07.09.2017 18:40 16,8 C 16,8 C 16,9 C 64 % 1014,8 hPa 0,0 l/m 3,8 km/h (1 Bft) W-SW 252 0 min 0,000 mm 51 W/m 10,0 C 16,8 C 9,7 km/h (2 Bft) 97 %
07.09.2017 18:50 16,6 C 16,6 C 16,8 C 65 % 1014,7 hPa 0,0 l/m 1,2 km/h (1 Bft) W-SW 252 0 min 0,000 mm 42 W/m 10,0 C 16,6 C 6,4 km/h (2 Bft) 98 %
07.09.2017 19:00 16,4 C 16,4 C 16,6 C 66 % 1014,7 hPa 0,0 l/m 1,0 km/h (0 Bft) W-SW 252 0 min 0,000 mm 35 W/m 10,0 C 16,4 C 8,0 km/h (2 Bft) 97 %
07.09.2017 19:10 16,1 C 16,1 C 16,4 C 66 % 1014,7 hPa 0,0 l/m 2,2 km/h (1 Bft) W-SW 243 0 min 0,051 mm 26 W/m 9,7 C 16,1 C 9,7 km/h (2 Bft) 97 %
07.09.2017 19:20 15,8 C 15,8 C 16,1 C 68 % 1014,8 hPa 0,0 l/m 1,1 km/h (1 Bft) W-SW 243 0 min 0,000 mm 18 W/m 9,9 C 15,8 C 6,4 km/h (2 Bft) 97 %
07.09.2017 19:30 15,6 C 15,6 C 15,8 C 69 % 1014,9 hPa 0,0 l/m 0,8 km/h (0 Bft) W-SW 243 0 min 0,000 mm 14 W/m 9,9 C 15,6 C 6,4 km/h (2 Bft) 97 %
07.09.2017 19:40 15,3 C 15,3 C 15,6 C 70 % 1014,8 hPa 0,0 l/m 1,2 km/h (1 Bft) W-SW 243 0 min 0,000 mm 7 W/m 9,9 C 15,3 C 6,4 km/h (2 Bft) 97 %
07.09.2017 19:50 15,1 C 15,1 C 15,3 C 70 % 1014,8 hPa 0,0 l/m 0,3 km/h (0 Bft) W-SW 243 0 min 0,000 mm 0 W/m 9,7 C 15,1 C 4,8 km/h (1 Bft) 97 %
07.09.2017 20:00 15,1 C 15,1 C 15,1 C 72 % 1014,8 hPa 0,0 l/m 0,0 km/h (0 Bft) W-SW 243 0 min 0,025 mm 0 W/m 10,1 C 15,1 C 1,6 km/h (1 Bft) 98 %
07.09.2017 20:10 14,7 C 14,7 C 15,1 C 73 % 1014,8 hPa 0,0 l/m 0,0 km/h (0 Bft) W-SW 243 0 min 0,000 mm 0 W/m 9,9 C 14,7 C 0,0 km/h (0 Bft) 97 %
07.09.2017 20:20 14,5 C 14,5 C 14,7 C 74 % 1014,8 hPa 0,0 l/m 0,0 km/h (0 Bft) W-SW 243 0 min 0,000 mm 0 W/m 9,9 C 14,5 C 0,0 km/h (0 Bft) 98 %
07.09.2017 20:30 14,3 C 14,3 C 14,5 C 75 % 1015,0 hPa 0,0 l/m 0,0 km/h (0 Bft) W-SW 243 0 min 0,000 mm 0 W/m 9,9 C 14,3 C 1,6 km/h (1 Bft) 97 %
07.09.2017 20:40 14,3 C 14,3 C 14,3 C 75 % 1015,2 hPa 0,0 l/m 0,3 km/h (0 Bft) W-SW 243 0 min 0,000 mm 0 W/m 9,9 C 14,3 C 4,8 km/h (1 Bft) 97 %
07.09.2017 20:50 14,3 C 14,3 C 14,3 C 75 % 1015,3 hPa 0,0 l/m 3,8 km/h (1 Bft) W-SW 239 0 min 0,000 mm 0 W/m 9,9 C 14,3 C 6,4 km/h (2 Bft) 98 %
07.09.2017 21:00 14,4 C 14,3 C 14,4 C 76 % 1015,3 hPa 0,0 l/m 2,2 km/h (1 Bft) W-SW 239 0 min 0,026 mm 0 W/m 10,2 C 14,4 C 4,8 km/h (1 Bft) 98 %
07.09.2017 21:10 14,5 C 14,4 C 14,6 C 75 % 1015,3 hPa 0,0 l/m 3,2 km/h (1 Bft) W-SW 247 0 min 0,000 mm 0 W/m 10,1 C 14,5 C 4,8 km/h (1 Bft) 99 %
07.09.2017 21:20 14,6 C 14,5 C 14,6 C 75 % 1015,3 hPa 0,0 l/m 1,6 km/h (1 Bft) W-SW 247 0 min 0,000 mm 0 W/m 10,2 C 14,6 C 4,8 km/h (1 Bft) 100 %
07.09.2017 21:30 14,5 C 14,5 C 14,6 C 76 % 1015,2 hPa 0,0 l/m 3,2 km/h (1 Bft) SW 225 0 min 0,000 mm 0 W/m 10,3 C 14,5 C 6,4 km/h (2 Bft) 100 %
07.09.2017 21:40 14,3 C 14,3 C 14,5 C 76 % 1015,2 hPa 0,0 l/m 3,2 km/h (1 Bft) SW 225 0 min 0,000 mm 0 W/m 10,1 C 14,3 C 6,4 km/h (2 Bft) 100 %
07.09.2017 21:50 14,3 C 14,3 C 14,3 C 77 % 1015,1 hPa 0,0 l/m 3,2 km/h (1 Bft) SW 225 0 min 0,000 mm 0 W/m 10,3 C 14,3 C 6,4 km/h (2 Bft) 100 %
07.09.2017 22:00 14,2 C 14,2 C 14,3 C 77 % 1015,1 hPa 0,0 l/m 3,2 km/h (1 Bft) SW 225 0 min 0,025 mm 0 W/m 10,2 C 14,2 C 6,4 km/h (2 Bft) 100 %
07.09.2017 22:10 14,2 C 14,2 C 14,2 C 77 % 1015,0 hPa 0,0 l/m 0,0 km/h (0 Bft) SW 225 0 min 0,000 mm 0 W/m 10,2 C 14,2 C 4,8 km/h (1 Bft) 100 %
07.09.2017 22:20 14,2 C 14,2 C 14,2 C 78 % 1015,1 hPa 0,0 l/m 1,6 km/h (1 Bft) SW 225 0 min 0,000 mm 0 W/m 10,4 C 14,2 C 4,8 km/h (1 Bft) 100 %
07.09.2017 22:30 14,1 C 14,1 C 14,2 C 78 % 1015,1 hPa 0,0 l/m 0,0 km/h (0 Bft) SW 225 0 min 0,000 mm 0 W/m 10,3 C 14,1 C 4,8 km/h (1 Bft) 100 %
07.09.2017 22:40 14,1 C 14,1 C 14,1 C 77 % 1014,9 hPa 0,0 l/m 4,8 km/h (1 Bft) SW 225 0 min 0,000 mm 0 W/m 10,1 C 14,1 C 6,4 km/h (2 Bft) 100 %
07.09.2017 22:50 14,2 C 14,1 C 14,2 C 77 % 1014,7 hPa 0,0 l/m 4,8 km/h (1 Bft) SO 135 0 min 0,000 mm 0 W/m 10,2 C 14,2 C 8,0 km/h (2 Bft) 100 %
07.09.2017 23:00 14,2 C 14,2 C 14,3 C 77 % 1014,9 hPa 0,0 l/m 3,2 km/h (1 Bft) SO 135 0 min 0,025 mm 0 W/m 10,2 C 14,2 C 6,4 km/h (2 Bft) 100 %
07.09.2017 23:10 14,2 C 14,2 C 14,3 C 77 % 1014,9 hPa 0,0 l/m 3,2 km/h (1 Bft) SO 135 0 min 0,000 mm 0 W/m 10,2 C 14,2 C 6,4 km/h (2 Bft) 100 %
07.09.2017 23:20 14,1 C 14,1 C 14,2 C 78 % 1015,0 hPa 0,0 l/m 3,2 km/h (1 Bft) SO 135 0 min 0,000 mm 0 W/m 10,3 C 14,1 C 6,4 km/h (2 Bft) 100 %
07.09.2017 23:30 14,1 C 14,1 C 14,1 C 78 % 1014,8 hPa 0,0 l/m 3,2 km/h (1 Bft) SO 135 0 min 0,000 mm 0 W/m 10,3 C 14,1 C 6,4 km/h (2 Bft) 99 %
07.09.2017 23:40 14,1 C 14,1 C 14,1 C 78 % 1014,6 hPa 0,0 l/m 3,2 km/h (1 Bft) SO 135 0 min 0,000 mm 0 W/m 10,3 C 14,1 C 6,4 km/h (2 Bft) 100 %
07.09.2017 23:50 14,1 C 14,0 C 14,1 C 78 % 1014,5 hPa 0,0 l/m 3,2 km/h (1 Bft) S-SO 157 0 min 0,000 mm 0 W/m 10,3 C 14,1 C 8,0 km/h (2 Bft) 100 %
_ Min-Zeit 06:00 06:00 05:50 17:20 23:50 - 00:10 - - - - - 06:00 06:00 01:30 14:20
Minimum _ 10,8 C 10,8 C 10,9 C 58 % 1014,5 hPa - 0,0 km/h (0 Bft) - - - - - 9,1 C 10,8 C 0,0 km/h (0 Bft) 87 %
_ Max-Zeit 15:50 15:50 15:50 04:30 00:30 00:00 12:50 - - 17:10 13:00 12:30 11:20 16:00 11:30 16:50
Maximum _ 17,9 C 17,7 C 17,9 C 89 % 1017,7 hPa 0,0 l/m 11,3 km/h
SW (2 Bft)
- - 20 min 0,254 mm 1000 W/m 12,5 C 17,9 C 25,7 km/h
S-SW (4 Bft)
100 %
Durchschnitt _ 14,2 C 14,1 C 14,3 C 78 % 1016,2 hPa #0,0 l/m 4,1 km/h (1 Bft) W-SW - #8:20 h #1,879 mm 250 W/m 10,3 C 14,0 C 11,1 km/h (2 Bft) 98 %
PRIVATE WETTERSTATION BILLIGHEIM-ALLFELD - www.neckar-odenwald-wetter.de - Holger Sonntag